Location: Bauen
(46.9356°N, 8.5784°E)
Time: 20:49:17
(UTC+00:00)

ATLAS 2AS CENTAUR R/B - Pass Details

Date: 18 February 2020
Orbit: 929 x 1283 km, 63.7° (Epoch: 05 April)

Event Time Altitude Azimuth Distance (km) Brightness Sun altitude
Exits shadow 05:14:18 - 319° (NW) 3,976 5.3 -12.9°
Reaches altitude 10° 05:16:38 10° 325° (NW) 3,228 4.8 -12.5°
Maximum altitude 05:23:53 40° 33° (NNE) 1,693 4.0 -11.3°
Drops below altitude 10° 05:30:37 10° 102° (ESE) 3,002 6.7 -10.1°
Sets 05:33:24 0° 110° (ESE) 3,903 7.5 -9.7°
